Regional Weather Roundup
Issued by NWS Upton, NY

Current Version | Previous Version | Graphics & Text | Print | Product List | Glossary Off
Versions: 1 2 3 4 5 6 7 8 9 10 11 12 13 14 15 16 17 18 19 20 21 22 23 24 25 26 27 28 29 30 31 32 33 34 35 36 37 38 39 40 41 42 43 44 45 46 47 48 49 50

000
ASUS41 KOKX 050608
RWROKX

REGIONAL WEATHER ROUNDUP
NATIONAL WEATHER SERVICE NEW YORK NY
100 AM EST MON DEC 05 2016

NOTE: "FAIR" INDICATES FEW OR NO CLOUDS BELOW 12,000 FEET WITH NO
SIGNIFICANT WEATHER AND/OR OBSTRUCTIONS TO VISIBILITY.

NYZ071-072-176-178-NJZ106-104-050700-
NEW YORK CITY METRO AREA

CITY           SKY/WX    TMP DP  RH WIND       PRES   REMARKS
Central Park   CLOUDY    41  22  46 SE7       30.13F
Wall St Helipt CLOUDY    43  30  60 NE8       30.11F
Bronx Bot Gard NOT AVBL
LaGuardia APRT CLOUDY    41  24  51 E6        30.11F
Kennedy INTL   CLOUDY    41  25  53 E8        30.12F
Breezy Point     N/A     45 N/A N/A SE14        N/A
Newark/Liberty CLOUDY    42  26  53 E7        30.11S
Teterboro      CLOUDY    41  23  48 SE8       30.10F
$$

NYZ177-179-078>081-050700-
LONG ISLAND NEW YORK

CITY           SKY/WX    TMP DP  RH WIND       PRES   REMARKS
Jones Beach      N/A     43 N/A N/A SE10        N/A
Matinecock PT  NOT AVBL
Farmingdale    CLOUDY    37  26  64 E3        30.12F
MacArthur/ISP  MOCLDY    37  26  64 E3        30.12F
Shirley        MOCLDY    34  27  75 CALM      30.13F
Westhampton    MOCLDY    31  25  78 CALM      30.14F
Southampton    NOT AVBL
Bridgehampton  NOT AVBL
East Hampton     N/A     30  26  83 CALM      30.12F
Montauk          N/A     34  27  75 CALM      30.14F
$$

NYZ052-065-067-050700-
HUDSON VALLEY

CITY           SKY/WX    TMP DP  RH WIND       PRES   REMARKS
White Plains   MOCLDY    34  21  59 E6        30.08F WCI  29
Newburgh       NOT AVBL
Montgomery     CLOUDY    32  23  69 NE5       30.07F WCI  27
Poughkeepsie   CLOUDY    30  22  72 CALM      30.10F
Albany         CLOUDY    26  22  84 CALM      30.10F
$$

NJZ001-105-106-008-010-013-015-019>022-104-050700-
NEW JERSEY

CITY           SKY/WX    TMP DP  RH WIND       PRES   REMARKS
Newark/Liberty CLOUDY    42  26  53 E7        30.11S
Teterboro      CLOUDY    41  23  48 SE8       30.10F
Caldwell       CLOUDY    38  25  59 E5        30.10F WCI  34
Somerville     CLOUDY    40  27  59 SE5       30.05F
Linden         CLOUDY    41  26  55 CALM      30.10F
Sussex         MOCLDY    33  23  66 NE5       30.07F WCI  29
Andover          N/A     35  25  66 CALM      30.05F
Trenton        CLOUDY    41  27  57 S6        30.07F
Millville      LGT RAIN  40  39  97 CALM      30.09F
Atlantic City  LGT RAIN  41  32  70 S5        30.10F
Wrightstown    NOT AVBL
Toms River     CLOUDY    39  34  82 SE3       30.10F
Belmar         NOT AVBL
$$

PAZ047>061-062-071-050700-
EASTERN PENNSYLVANIA

CITY           SKY/WX    TMP DP  RH WIND       PRES   REMARKS
Philadelphia   LGT RAIN  42  34  73 S10       30.09F
Allentown      CLOUDY    42  25  50 SE8       30.04F
Scranton       CLOUDY    39  23  52 S3        29.98F
$$

CTZ002-004>006-009-010-012-RIZ004-006-007-MAZ004-011-015-050700-
SOUTHERN NEW ENGLAND
 IN CT

CITY           SKY/WX    TMP DP  RH WIND       PRES   REMARKS
Bradley INTL   CLOUDY    30  20  66 CALM      30.14F
Hartford       MOCLDY    31  22  69 NE5       30.14F WCI  26
Danbury        MOCLDY    31  21  66 CALM      30.12
Wtrbury/Oxford CLOUDY    30  18  59 E7        30.10F WCI  23
Bridgeport     CLOUDY    37  23  56 NE8       30.12F WCI  31
Meriden        MOCLDY    32  23  69 CALM      30.13F
New Haven      MOCLDY    33  23  66 N3        30.13F
Chester          N/A     32  21  64 CALM      30.12F
Groton         MOCLDY    36  24  62 NE5       30.14F WCI  32
Wilimantic     MOCLDY    29  24  82 CALM      30.16S

 IN RI

CITY           SKY/WX    TMP DP  RH WIND       PRES   REMARKS
Providence     MOCLDY    31  21  66 N3        30.15F
Block Island   MOCLDY    39  27  62 CALM      30.13F
Westerly       MOCLDY    31  21  66 N5        30.15F WCI  26
 IN MA

CITY           SKY/WX    TMP DP  RH WIND       PRES   REMARKS
Boston         CLOUDY    31  21  66 NW6       30.16F WCI  25
Worcester      CLOUDY    27  18  69 NE6       30.09F WCI  20
Westfield      CLOUDY    27  24  89 CALM      30.13F
Provincetown   CLOUDY    38  29  70 W5        30.15S WCI  34
Nantucket      MOCLDY    32  24  72 CALM      30.14F
$$

ANZ330-335-338-340-345-350-353-355-050700-
COASTAL MARINE OBSERVATIONS


STATION/POSITION TIME  SKY/WX   TEMP    WIND        PRES    VSBY  WAVE
                                AIR SEA DIR/SP/G                  HT/PER
                 (UTC)          (F)     (DEG/KT/KT) (MB)    (MI)  (FT/S)
NY HARB ENTRANCE 0450            45 53  130/ 10/ 12 1019.9          1/ 8
20 S FIRE ISLAND 0450            44 54  120/  6/ 10 1020.3          1/ 8
GREAT SOUTH BAY  0515            41 43                N/A
23 SSW MONTAUK P 0450            43 55  150/  4/  8 1021.3          1/ 8
15 E BARNEGAT LI 0530               54                N/A           2/ 8
HUDSON CANYON    0450            45 58              1020.3          2/ 4
KINGS POINT      0548               48              1019.5
EXECUTION ROCKS  0530            41     100/  8/ 10   N/A
CENTRAL LI SOUND 0530            40 51  110/  6/  8   N/A           1
EASTERN LI SOUND NOT AVBL
ROBBINS REEF     0542                   100/ 11/ 12 1019.5
$$


>>>>>>>>>>>>>>>>>>>>>>>>>>>> KEY <<<<<<<<<<<<<<<<<<<<<<<<<<<
>                                                          <
>     SKY/WX - Sky Condition/Present Weather               <
>     TMP    - Temperature in Fahrenheit                   <
>     DP     - Dew Point in Fahrenheit                     <
>     RH     - Relative Humidity in Percent                <
>     WIND   - Direction (from) and Speed in MPH           <
>     PRES   - Mean Sea Level Pressure (inches of Hg)      <
>     WCI    - Wind Chill Index                            <
>     VSB    - VISIBILITY IN MILES                         <
>     HX     - HEAT INDEX                                  <
>     TC     - TEMPERATURE IN CELSIUS                      <
>     VRB    - VARIABLE WIND DIRECTION                     <
>                                                          <
>>>>>>>>>>>>>>>>>>>>>>>>>>>> KEY <<<<<<<<<<<<<<<<<<<<<<<<<<<



USA.gov is the U.S. government's official web portal to all federal, state and local government web resources and services.